Beaufort, NC

1:58 PM EDT on August 17, 2019 (GMT -0400)
Smith

Weather History for KMRH - June, 2019

Change the Weather History Date:

Tuesday, June 4, 2019

  Actual Average Record
Temperature  
Mean Temperature 72 °F -  
Max Temperature 80 °F 82 °F 92 °F (1991)
Min Temperature 66 °F 66 °F 53 °F (1976)
Cooling Degree Days 8    
Growing Degree Days 22 (Base 50)    
Moisture  
Dew Point 57 °F    
Average Humidity 57    
Maximum Humidity 75    
Minimum Humidity 43    
Precipitation  
Precipitation 0.00 in - - ()
Sea Level Pressure  
Sea Level Pressure 30.13 in    
Wind  
Wind Speed 5 mph (ESE)    
Max Wind Speed 13 mph    
Max Gust Speed -    
Visibility 10 miles    
Events      
Averages and records for this station are not official NWS values.
T = Trace of Precipitation, MM = Missing Value Source: NWS Daily Summary

Daily Weather History Graph

Daily Weather History Graph

Search for Another Location

Airport or City:

Astronomy

Jun. 04, 2019 Rise Set
Actual Time 5:53 AM EDT 8:16 PM EDT
Civil Twilight 5:24 AM EDT 8:45 PM EDT
Nautical Twilight 4:48 AM EDT 9:21 PM EDT
Astronomical Twilight 4:09 AM EDT 10:00 PM EDT
Moon 7:00 AM EDT (6/4) 9:42 PM EDT (6/4)
Length of Visible Light 15h 20m
Length of Day
14h 22m
New Moon, 2% of the Moon is Illuminated
Jun 4
New Moon
Jun 10
First Quarter
Jun 17
Full
Jun 25
Last Quarter
Jul 2
New

Hourly Weather History & Observations

Time (EDT) Temp. Dew Point Humidity Pressure Visibility Wind Dir Wind Speed Gust Speed Precip Events Conditions
12:58 AM 66.9 °F 55.9 °F 68% 30.07 in 10.0 mi Calm Calm - N/A   Clear
1:58 AM 66.9 °F 57.0 °F 70% 30.07 in 10.0 mi Calm Calm - N/A   Clear
2:58 AM 66.9 °F 57.9 °F 73% 30.07 in 10.0 mi NNE 3.5 mph - N/A   Clear
3:58 AM 69.1 °F 57.9 °F 68% 30.07 in 10.0 mi ENE 3.5 mph - N/A   Clear
4:58 AM 66.9 °F 57.9 °F 73% 30.10 in 10.0 mi Calm Calm - N/A   Clear
5:58 AM 66.0 °F 57.9 °F 75% 30.12 in 10.0 mi NNE 4.6 mph - N/A   Clear
6:58 AM 68.0 °F 57.9 °F 70% 30.14 in 10.0 mi NE 5.8 mph - N/A   Clear
7:58 AM 73.0 °F 55.9 °F 55% 30.16 in 10.0 mi NE 6.9 mph - N/A   Clear
8:58 AM 75.0 °F 54.0 °F 48% 30.17 in 10.0 mi NE 10.4 mph - N/A   Clear
9:58 AM 77.0 °F 55.0 °F 47% 30.18 in 10.0 mi ENE 10.4 mph - N/A   Clear
10:58 AM 77.0 °F 54.0 °F 45% 30.19 in 10.0 mi East 9.2 mph - N/A   Clear
11:58 AM 78.1 °F 55.0 °F 45% 30.19 in 10.0 mi ESE 10.4 mph - N/A   Clear
12:58 PM 78.1 °F 55.9 °F 46% 30.18 in 10.0 mi SE 10.4 mph - N/A   Clear
1:58 PM 77.0 °F 53.1 °F 43% 30.17 in 10.0 mi ESE 6.9 mph - N/A   Partly Cloudy
2:58 PM 79.0 °F 55.0 °F 44% 30.16 in 10.0 mi SE 8.1 mph - N/A   Clear
3:58 PM 79.0 °F 55.0 °F 44% 30.15 in 10.0 mi SE 8.1 mph - N/A   Clear
4:58 PM 79.0 °F 55.9 °F 45% 30.13 in 10.0 mi ESE 9.2 mph - N/A   Clear
5:58 PM 78.1 °F 55.9 °F 46% 30.13 in 10.0 mi ESE 9.2 mph - N/A   Clear
6:58 PM 77.0 °F 57.9 °F 52% 30.13 in 10.0 mi SSE 9.2 mph - N/A   Clear
7:58 PM 75.9 °F 60.1 °F 58% 30.12 in 10.0 mi SSE 8.1 mph - N/A   Clear
8:58 PM 75.0 °F 62.1 °F 64% 30.12 in 10.0 mi SSE 9.2 mph - N/A   Clear
9:58 PM 75.9 °F 63.0 °F 64% 30.13 in 10.0 mi South 9.2 mph - N/A   Partly Cloudy
10:58 PM 75.9 °F 62.1 °F 62% 30.13 in 10.0 mi South 10.4 mph - N/A   Clear
11:58 PM 75.9 °F 63.0 °F 64% 30.12 in 10.0 mi South 12.7 mph - N/A   Clear